�������l�o���
Date,Time,MP-1(��Sv/h),MP-2(��Sv/h),MP-3(��Sv/h),MP-4(��Sv/h),MP-5(��Sv/h),MP-6(��Sv/h),MP-7(��Sv/h),MP-8(��Sv/h),����,����(m/s),���J
2016/06/23,00:00,1.306,-,2.265,2.256,2.004,0.644,1.204,1.040,��쓌,4.3,��
2016/06/23,00:10,1.305,-,2.264,2.256,2.002,0.645,1.204,1.040,��쓌,5.2,��
2016/06/23,00:20,1.307,-,2.269,2.257,2.006,0.645,1.204,1.041,��쓌,4.1,��
2016/06/23,00:30,1.305,-,2.267,2.258,2.004,0.643,1.203,1.041,��쓌,3.7,��
2016/06/23,00:40,1.305,-,2.266,2.255,2.007,0.644,1.204,1.040,��쓌,3.7,��
2016/06/23,00:50,1.304,-,2.267,2.254,2.006,0.642,1.203,1.040,��,5.1,��
2016/06/23,01:00,1.304,-,2.268,2.257,2.008,0.643,1.203,1.039,��쓌,3.0,��
2016/06/23,01:10,1.305,-,2.265,2.256,2.008,0.644,1.203,1.041,��쓌,4.0,��
2016/06/23,01:20,1.303,-,2.268,2.262,2.006,0.647,1.203,1.040,��쓌,3.1,��
2016/06/23,01:30,1.304,-,2.263,2.257,2.006,0.644,1.205,1.040,��쓌,3.8,��
2016/06/23,01:40,1.304,-,2.265,2.255,2.007,0.644,1.203,1.042,��,2.9,��
2016/06/23,01:50,1.305,-,2.263,2.257,2.009,0.644,1.204,1.041,��쓌,2.6,��
2016/06/23,02:00,1.304,-,2.264,2.253,2.010,0.644,1.201,1.041,��쓌,2.6,��
2016/06/23,02:10,1.307,-,2.266,2.255,2.008,0.644,1.201,1.042,��쓌,2.0,��
2016/06/23,02:20,1.305,-,2.268,2.258,2.007,0.643,1.203,1.043,��쓌,2.0,�L
2016/06/23,02:30,1.305,-,2.263,2.254,2.002,0.644,1.202,1.041,�쓌,1.9,�L
2016/06/23,02:40,1.304,-,2.260,2.254,2.004,0.645,1.204,1.042,�쓌,1.5,�L
2016/06/23,02:50,1.303,-,2.261,2.255,2.004,0.645,1.203,1.041,��쓌,1.4,�L
2016/06/23,03:00,1.303,-,2.261,2.256,2.005,0.642,1.202,1.040,�쓌,1.4,��
2016/06/23,03:10,1.305,-,2.258,2.255,2.003,0.644,1.203,1.041,���쓌,1.2,�L
2016/06/23,03:20,1.303,-,2.258,2.252,2.005,0.643,1.204,1.040,�쓌,1.7,��
2016/06/23,03:30,1.304,-,2.262,2.253,2.003,0.645,1.203,1.040,�쓌,3.2,��
2016/06/23,03:40,1.300,-,2.252,2.252,2.000,0.644,1.202,1.040,��쓌,3.1,�L
2016/06/23,03:50,1.302,-,2.256,2.251,1.998,0.645,1.202,1.041,�쓌,3.8,��
2016/06/23,04:00,1.301,-,2.253,2.255,1.992,0.645,1.202,1.038,�쓌,3.1,��
2016/06/23,04:10,1.301,-,2.256,2.252,1.997,0.643,1.201,1.039,�쓌,3.0,��
2016/06/23,04:20,1.302,-,2.255,2.251,1.999,0.642,1.200,1.041,�쓌,2.8,��
2016/06/23,04:30,1.301,-,2.254,2.251,1.996,0.643,1.202,1.041,�쓌,2.9,��
2016/06/23,04:40,1.299,-,2.253,2.252,1.994,0.643,1.203,1.039,�쓌,3.1,��
2016/06/23,04:50,1.303,-,2.254,2.248,1.998,0.644,1.202,1.040,�쓌,2.0,��
2016/06/23,05:00,1.300,-,2.253,2.252,1.995,0.645,1.202,1.040,���쓌,1.5,��
2016/06/23,05:10,1.300,-,2.254,2.252,2.000,0.642,1.202,1.042,�쓌,2.6,��
2016/06/23,05:20,1.302,-,2.251,2.253,1.993,0.644,1.201,1.041,�쓌,3.2,�L
2016/06/23,05:30,1.298,-,2.245,2.244,1.987,0.643,1.201,1.040,�쓌,3.6,�L
2016/06/23,05:40,1.295,-,2.235,2.241,1.981,0.642,1.199,1.039,�쓌,4.1,�L
2016/06/23,05:50,1.295,-,2.228,2.236,1.969,0.640,1.196,1.039,�쓌,4.1,�L
2016/06/23,06:00,1.290,-,2.225,2.232,1.965,0.641,1.195,1.036,�쓌,3.6,�L
2016/06/23,06:10,1.288,-,2.216,2.226,1.960,0.641,1.194,1.035,�쓌,2.8,�L
2016/06/23,06:20,1.287,-,2.213,2.219,1.956,0.639,1.192,1.032,���쓌,2.8,�L
2016/06/23,06:30,1.282,-,2.208,2.221,1.953,0.638,1.190,1.033,���쓌,2.6,�L
2016/06/23,06:40,1.283,-,2.201,2.215,1.947,0.638,1.191,1.033,���쓌,2.8,�L
2016/06/23,06:50,1.279,-,2.201,2.213,1.941,0.639,1.191,1.032,���쓌,2.6,�L
2016/06/23,07:00,1.278,-,2.193,2.205,1.938,0.637,1.189,1.029,���쓌,2.3,�L
2016/06/23,07:10,1.272,-,2.184,2.200,1.926,0.636,1.184,1.028,��,3.2,�L
2016/06/23,07:20,1.268,-,2.178,2.188,1.917,0.636,1.182,1.028,��,2.6,�L
2016/06/23,07:30,1.270,-,2.174,2.185,1.915,0.635,1.180,1.026,��,3.6,�L
2016/06/23,07:40,1.261,-,2.165,2.175,1.907,0.634,1.178,1.022,��쓌,6.5,�L
2016/06/23,07:50,1.257,-,2.152,2.161,1.901,0.631,1.173,1.020,��,3.4,�L
2016/06/23,08:00,1.256,-,2.151,2.159,1.897,0.632,1.175,1.020,���쓌,4.0,�L
2016/06/23,08:10,1.257,-,2.152,2.160,1.900,0.631,1.174,1.020,���쓌,4.7,�L
2016/06/23,08:20,1.257,-,2.153,2.157,1.895,0.634,1.174,1.022,���쓌,5.4,�L
2016/06/23,08:30,1.256,-,2.152,2.158,1.902,0.632,1.172,1.021,-,CALM,�L
2016/06/23,08:40,1.256,-,2.150,2.159,1.894,0.633,1.174,1.019,��,4.9,�L
2016/06/23,08:50,1.258,-,2.149,2.155,1.895,0.633,1.173,1.022,��,5.3,�L
2016/06/23,09:00,1.256,-,2.143,2.154,1.891,0.633,1.170,1.020,���쓌,6.2,�L
2016/06/23,09:10,1.257,-,2.138,2.154,1.886,0.633,1.170,1.018,��,5.5,�L
2016/06/23,09:20,1.252,-,2.141,2.150,1.887,0.632,1.173,1.018,���k��,4.8,�L
2016/06/23,09:30,1.253,-,2.141,2.150,1.885,0.633,1.170,1.016,�k��,3.4,�L
2016/06/23,09:40,1.255,-,2.137,2.147,1.885,0.631,1.170,1.019,�k��,3.7,�L
2016/06/23,09:50,1.250,-,2.133,2.148,1.885,0.631,1.171,1.017,�k��,3.8,�L
2016/06/23,10:00,1.248,-,2.132,2.146,1.879,0.631,1.171,1.017,�k�k��,4.1,�L
2016/06/23,10:10,1.247,-,2.128,2.138,1.873,0.631,1.167,1.016,��,2.0,�L
2016/06/23,10:20,1.247,-,2.128,2.132,1.865,0.632,1.163,1.013,�k�k��,4.7,�L
2016/06/23,10:30,1.246,-,2.122,2.129,1.858,0.628,1.162,1.014,�k��,4.0,�L
2016/06/23,10:40,1.241,-,2.112,2.131,1.857,0.625,1.162,1.013,�k�k��,4.6,�L
2016/06/23,10:50,1.239,-,2.111,2.122,1.843,0.625,1.156,1.012,�k�k��,4.2,�L
2016/06/23,11:00,1.234,-,2.108,2.120,1.841,0.626,1.158,1.011,�k,5.5,�L
2016/06/23,11:10,1.236,-,2.111,2.123,1.837,0.625,1.156,1.011,�k,5.5,�L
2016/06/23,11:20,1.234,-,2.105,2.118,1.833,0.625,1.158,1.012,�k,5.6,�L
2016/06/23,11:30,1.233,-,2.105,2.119,1.826,0.624,1.156,1.010,�k�k��,6.0,�L
2016/06/23,11:40,1.233,-,2.100,2.113,1.816,0.623,1.153,1.009,�k�k��,8.1,�L
2016/06/23,11:50,1.232,-,2.098,2.110,1.811,0.623,1.151,1.008,�k�k��,6.1,�L
2016/06/23,12:00,1.231,-,2.094,2.109,1.800,0.621,1.150,1.009,�k�k��,7.8,�L
2016/06/23,12:10,1.229,-,2.096,2.109,1.800,0.622,1.150,1.005,�k�k��,6.7,�L
2016/06/23,12:20,1.225,-,2.097,2.107,1.791,0.622,1.147,1.006,�k�k��,8.7,�L
2016/06/23,12:30,1.229,-,2.094,2.108,1.795,0.623,1.148,1.005,�k�k��,8.4,�L
2016/06/23,12:40,1.230,-,2.098,2.112,1.800,0.623,1.151,1.005,�k�k��,8.6,�L
2016/06/23,12:50,1.234,-,2.103,2.118,1.809,0.624,1.151,1.008,�k�k��,6.6,�L
2016/06/23,13:00,1.238,-,2.108,2.124,1.816,0.624,1.155,1.011,�k�k��,5.7,�L
2016/06/23,13:10,1.238,-,2.111,2.127,1.822,0.622,1.155,1.008,�k�k��,5.6,�L
2016/06/23,13:20,1.241,-,2.114,2.130,1.822,0.623,1.155,1.008,�k,5.0,�L
2016/06/23,13:30,1.242,-,2.113,2.133,1.827,0.625,1.157,1.011,�k,4.8,��
2016/06/23,13:40,1.245,-,2.115,2.131,1.827,0.624,1.158,1.011,�k�k��,6.8,�L
2016/06/23,13:50,1.242,-,2.111,2.128,1.824,0.623,1.157,1.010,�k�k��,8.9,�L
2016/06/23,14:00,1.244,-,2.112,2.130,1.828,0.623,1.158,1.010,�k�k��,7.5,��
2016/06/23,14:10,1.244,-,2.119,2.134,1.830,0.623,1.159,1.011,�k�k��,8.3,��
2016/06/23,14:20,1.245,-,2.120,2.136,1.836,0.623,1.159,1.012,�k�k��,7.6,��
2016/06/23,14:30,1.250,-,2.122,2.139,1.837,0.624,1.162,1.012,�k�k��,8.1,��
2016/06/23,14:40,1.247,-,2.120,2.141,1.838,0.624,1.159,1.010,�k�k��,8.9,��
2016/06/23,14:50,1.248,-,2.121,2.137,1.837,0.621,1.158,1.010,�k�k��,8.7,��
2016/06/23,15:00,1.246,-,2.122,2.138,1.837,0.622,1.158,1.011,�k�k��,8.4,��
2016/06/23,15:10,1.248,-,2.123,2.138,1.839,0.624,1.160,1.011,�k�k��,8.7,��
2016/06/23,15:20,1.247,-,2.123,2.138,1.841,0.620,1.159,1.010,�k�k��,8.8,��
2016/06/23,15:30,1.250,-,2.125,2.137,1.839,0.621,1.160,1.011,�k�k��,8.6,��
2016/06/23,15:40,1.247,-,2.128,2.142,1.844,0.624,1.162,1.013,�k�k��,7.2,��
2016/06/23,15:50,1.248,-,2.122,2.139,1.846,0.620,1.162,1.013,�k�k��,8.0,��
2016/06/23,16:00,1.252,-,2.129,2.142,1.849,0.623,1.161,1.013,�k�k��,7.6,��
2016/06/23,16:10,1.251,-,2.127,2.142,1.847,0.621,1.163,1.014,�k�k��,8.0,��
2016/06/23,16:20,1.252,-,2.132,2.148,1.851,0.622,1.162,1.013,�k�k��,7.2,��
2016/06/23,16:30,1.251,-,2.132,2.144,1.851,0.624,1.165,1.014,�k�k��,7.4,��
2016/06/23,16:40,1.253,-,2.133,2.151,1.854,0.624,1.164,1.013,�k�k��,7.6,��
2016/06/23,16:50,1.254,-,2.133,2.149,1.856,0.623,1.164,1.011,�k�k��,8.2,��
2016/06/23,17:00,1.255,-,2.136,2.146,1.859,0.624,1.163,1.016,�k�k��,9.1,��
2016/06/23,17:10,1.255,-,2.133,2.148,1.858,0.623,1.167,1.016,�k�k��,7.1,��
2016/06/23,17:20,1.257,-,2.135,2.152,1.857,0.622,1.166,1.015,�k�k��,7.5,��
2016/06/23,17:30,1.256,-,2.135,2.152,1.858,0.624,1.166,1.015,�k�k��,7.6,��
2016/06/23,17:40,1.256,-,2.134,2.152,1.860,0.624,1.164,1.015,�k�k��,7.6,��
2016/06/23,17:50,1.256,-,2.134,2.152,1.862,0.623,1.166,1.016,�k�k��,8.1,��
2016/06/23,18:00,1.255,-,2.133,2.150,1.858,0.624,1.164,1.013,�k�k��,8.3,��
2016/06/23,18:10,1.251,-,2.127,2.148,1.855,0.623,1.162,1.014,�k�k��,8.1,��
2016/06/23,18:20,1.249,-,2.126,2.144,1.846,0.622,1.163,1.012,�k�k��,7.6,��
2016/06/23,18:30,1.249,-,2.126,2.142,1.851,0.622,1.163,1.013,�k�k��,7.8,��
2016/06/23,18:40,1.248,-,2.120,2.141,1.849,0.621,1.165,1.011,�k�k��,7.2,��
2016/06/23,18:50,1.244,-,2.118,2.137,1.846,0.621,1.163,1.012,�k�k��,8.2,��
2016/06/23,19:00,1.245,-,2.113,2.132,1.849,0.622,1.160,1.012,�k�k��,8.3,�L
2016/06/23,19:10,1.244,-,2.114,2.132,1.845,0.622,1.160,1.010,�k�k��,7.1,�L
2016/06/23,19:20,1.243,-,2.117,2.134,1.843,0.621,1.164,1.012,�k�k��,7.1,��
2016/06/23,19:30,1.246,-,2.114,2.131,1.842,0.620,1.163,1.013,�k�k��,8.2,��
2016/06/23,19:40,1.245,-,2.116,2.132,1.848,0.623,1.162,1.011,�k�k��,6.8,��
2016/06/23,19:50,1.246,-,2.115,2.136,1.846,0.622,1.163,1.014,�k�k��,7.1,��
2016/06/23,20:00,1.246,-,2.117,2.135,1.846,0.623,1.164,1.013,�k�k��,6.4,��
2016/06/23,20:10,1.243,-,2.117,2.131,1.845,0.622,1.163,1.010,�k�k��,5.9,��
2016/06/23,20:20,1.242,-,2.110,2.130,1.840,0.624,1.163,1.013,�k�k��,7.5,��
2016/06/23,20:30,1.243,-,2.109,2.127,1.839,0.623,1.162,1.010,�k�k��,8.3,��
2016/06/23,20:40,1.243,-,2.110,2.129,1.841,0.625,1.162,1.011,�k�k��,7.3,��
2016/06/23,20:50,1.241,-,2.108,2.132,1.843,0.623,1.161,1.012,�k�k��,7.8,��
2016/06/23,21:00,1.240,-,2.112,2.127,1.840,0.621,1.161,1.010,�k,8.4,��
2016/06/23,21:10,1.241,-,2.110,2.130,1.844,0.624,1.163,1.010,�k�k��,8.0,��
2016/06/23,21:20,1.242,-,2.110,2.133,1.840,0.621,1.160,1.011,�k�k��,8.4,��
2016/06/23,21:30,1.243,-,2.116,2.129,1.842,0.621,1.161,1.012,�k�k��,7.7,��
2016/06/23,21:40,1.243,-,2.116,2.132,1.844,0.621,1.162,1.010,�k�k��,7.6,��
2016/06/23,21:50,1.244,-,2.117,2.135,1.843,0.622,1.164,1.010,�k�k��,6.4,��
2016/06/23,22:00,1.242,-,2.114,2.134,1.843,0.622,1.163,1.013,�k,7.6,��
2016/06/23,22:10,1.242,-,2.115,2.132,1.845,0.621,1.163,1.012,�k�k��,6.5,��
2016/06/23,22:20,1.241,-,2.114,2.134,1.843,0.621,1.162,1.011,�k�k��,6.4,��
2016/06/23,22:30,1.244,-,2.113,2.132,1.842,0.621,1.162,1.012,�k�k��,6.0,��
2016/06/23,22:40,1.245,-,2.113,2.133,1.845,0.620,1.164,1.012,�k�k��,5.5,��
2016/06/23,22:50,1.245,-,2.115,2.132,1.846,0.622,1.160,1.013,�k,5.3,��
2016/06/23,23:00,1.246,-,2.116,2.133,1.848,0.622,1.164,1.012,�k�k��,6.8,��
2016/06/23,23:10,1.249,-,2.118,2.136,1.846,0.624,1.163,1.013,�k�k��,7.6,��
2016/06/23,23:20,1.247,-,2.118,2.138,1.851,0.623,1.162,1.012,�k�k��,7.3,��
2016/06/23,23:30,1.246,-,2.122,2.139,1.855,0.623,1.162,1.013,�k�k��,6.7,��
2016/06/23,23:40,1.247,-,2.117,2.139,1.854,0.624,1.163,1.017,�k�k��,6.9,��
2016/06/23,23:50,1.245,-,2.116,2.139,1.852,0.624,1.162,1.015,�k�k��,7.4,��
